Wind_Speed
40 40 39 37 37 36 36 36 35 35 36 37 36 34 35 35 33 33 32 31 32 32 32 30 29 27 26 24 23 24 24 22 19 19 20 19 17 17 17 16 15 14
40 40 39 38 37 36 36 37 36 36 37 37 36 35 35 36 35 35 35 33 32 33 33 33 31 29 28 26 25 25 24 22 20 20 21 21 19 18 18 17 16 15
41 40 39 38 37 37 36 37 37 37 37 37 36 36 36 37 37 37 37 35 34 33 34 35 34 32 30 28 27 26 25 24 23 21 22 23 22 21 20 20 18 17
41 40 40 39 38 37 36 37 37 36 37 37 37 37 37 38 38 38 38 37 35 35 35 36 36 35 32 30 28 28 27 26 25 23 23 24 24 23 22 21 21 19
42 40 40 39 38 36 36 37 38 37 37 38 38 38 38 38 38 39 39 38 37 36 36 37 38 36 35 32 30 30 29 28 27 25 25 26 26 25 23 22 22 21
41 41 40 39 38 37 37 38 39 38 38 38 38 39 39 40 39 40 40 39 39 38 38 39 39 38 37 35 33 33 32 30 29 28 27 28 27 26 24 23 23 23
40 40 40 38 38 38 38 38 39 39 39 39 39 40 41 41 40 41 41 40 40 40 40 40 40 39 39 37 35 34 33 32 32 31 30 29 29 28 27 26 26 25
40 40 40 39 38 38 38 39 39 40 40 40 40 41 41 41 41 41 41 41 41 41 41 41 41 40 40 39 37 36 35 33 33 33 33 32 31 30 29 28 27 27
40 39 39 39 39 39 39 40 40 40 40 41 42 42 42 42 42 41 41 42 42 42 41 41 41 41 41 40 38 37 36 35 35 35 35 34 33 32 30 29 28 27
40 39 39 40 40 40 40 41 40 40 40 42 42 42 42 42 42 41 41 42 42 42 42 42 42 42 41 40 39 38 38 38 36 36 36 35 34 32 30 29 29 28
41 40 40 41 41 41 41 41 40 40 41 42 42 42 42 42 41 41 41 42 43 43 43 43 43 42 41 41 40 39 38 38 37 36 36 35 33 32 31 30 29 29
41 41 41 42 43 42 41 41 41 40 41 42 42 42 41 41 41 42 42 43 43 43 43 43 43 42 42 41 40 39 37 37 36 35 35 34 33 33 32 31 30 29
43 43 43 43 44 43 42 41 41 41 42 42 42 41 40 40 41 43 43 43 43 43 43 43 42 41 41 40 38 38 37 36 34 34 34 34 33 33 32 31 30 29
44 44 44 44 43 43 41 41 41 42 42 41 41 40 40 41 42 42 42 41 41 42 42 41 40 40 39 38 37 36 36 36 35 34 33 33 32 32 32 31 31 30
43 43 43 43 42 42 42 42 42 42 41 40 40 40 41 41 41 40 40 39 40 40 39 39 39 39 39 38 37 37 37 36 36 35 34 33 31 31 31 31 31 30
42 42 42 42 42 42 42 42 42 41 41 40 40 40 40 39 39 39 39 39 38 38 38 38 39 39 39 39 38 38 39 38 37 36 35 33 31 30 30 30 31 31
41 41 41 41 42 42 42 43 42 41 40 40 39 39 39 38 38 38 38 38 38 37 38 39 39 39 38 39 39 40 41 40 38 36 33 32 31 31 30 31 31 31
41 41 41 41 41 42 42 42 41 40 39 38 38 38 38 37 37 38 38 38 37 38 39 40 40 39 39 39 40 41 42 40 38 34 32 32 33 32 32 31 31 30
41 40 40 41 41 42 41 40 39 39 39 39 39 38 37 37 37 37 37 37 38 39 40 39 39 39 40 40 41 42 42 41 38 34 32 33 33 33 33 33 32 31
41 40 40 40 40 40 39 38 39 39 39 39 38 37 36 36 37 37 37 38 39 39 39 39 38 39 40 40 41 41 41 41 39 35 32 33 34 34 33 32 32 31
40 40 40 39 39 38 38 38 38 38 38 38 36 36 37 37 37 37 37 38 39 38 38 37 38 39 39 39 40 40 40 41 40 36 32 32 33 33 32 31 30 29
42 41 39 38 38 37 37 37 37 37 37 37 35 35 36 37 37 37 38 38 37 37 37 36 36 37 38 38 38 38 39 40 39 34 31 30 31 31 30 30 29 28
42 40 39 38 37 37 37 37 37 37 37 36 35 34 35 36 37 37 38 38 37 37 36 35 34 36 37 37 37 37 38 39 37 33 30 29 29 29 29 28 28 28
42 40 38 37 37 38 38 38 37 37 36 36 36 36 36 36 36 36 36 37 37 38 37 36 35 36 36 36 36 36 38 38 36 32 30 29 28 28 28 27 27 27
40 39 38 38 38 39 39 38 38 36 36 36 36 36 36 35 34 34 34 35 36 37 37 37 36 35 35 34 34 35 37 37 34 31 28 27 27 27 27 26 26 27
39 39 39 39 39 40 39 38 37 35 34 35 35 35 34 33 33 33 33 33 33 34 34 34 33 32 32 32 33 34 36 35 33 30 28 26 26 26 25 25 26 27
Wind_Direction
206 206 207 208 207 206 204 203 204 204 204 204 204 205 205 205 204 202 203 205 206 206 207 209 210 206 205 208 209 209 211 215 218 216 209 206 210 210 207 210 214 216
206 207 208 209 209 208 207 206 205 204 204 205 207 209 207 206 205 204 204 206 207 209 209 210 210 206 207 210 210 209 213 216 216 215 211 208 210 211 211 213 215 220
207 207 208 209 210 210 209 208 208 207 207 208 210 210 208 206 205 205 206 207 208 209 209 209 209 208 211 213 211 211 215 217 216 215 214 213 213 215 217 218 219 224
207 208 208 210 210 210 210 209 209 208 208 209 210 210 208 206 205 205 206 207 209 210 210 209 208 209 213 214 213 213 216 218 218 216 215 216 216 219 220 218 219 224
208 208 209 210 210 210 209 209 209 207 207 209 209 208 207 205 204 205 206 207 209 211 211 209 208 210 214 215 215 215 215 218 218 215 214 216 217 218 219 218 219 223
207 208 209 210 210 210 209 209 209 207 207 208 207 207 206 205 205 206 206 207 209 212 212 210 209 211 213 215 217 218 217 217 215 213 214 215 215 218 220 220 221 223
206 208 209 210 210 210 210 210 210 209 208 207 207 207 207 207 207 208 208 208 210 212 212 211 211 211 212 215 217 218 218 217 214 212 213 215 216 219 221 222 224 224
205 207 208 209 210 211 212 211 210 210 209 207 208 209 208 208 209 209 209 209 210 212 212 212 212 211 212 214 216 217 217 215 214 213 214 216 217 219 221 223 226 226
204 205 207 209 210 211 212 212 211 210 209 208 209 210 210 210 211 211 210 210 211 212 212 212 212 211 211 213 215 216 215 215 214 214 216 217 218 220 221 222 224 227
202 204 205 207 209 211 212 212 212 210 209 209 210 210 211 212 212 212 211 211 211 212 212 212 212 211 212 213 216 218 218 216 216 216 218 220 221 222 222 222 223 227
201 202 204 206 209 211 212 212 211 210 210 210 210 210 211 212 212 212 212 212 212 212 213 213 213 213 213 214 217 220 220 219 218 219 221 223 225 225 225 224 225 228
200 201 203 206 209 211 212 212 211 211 211 210 210 211 211 212 211 212 213 213 214 214 214 214 214 214 215 216 217 219 220 221 221 222 223 225 227 228 228 228 227 230
199 201 203 206 208 210 211 211 211 212 212 212 211 211 211 211 212 213 214 214 215 215 215 216 216 215 216 217 217 218 219 221 223 223 224 226 228 228 229 229 229 230
200 201 203 205 208 209 210 211 212 213 213 213 212 212 212 213 213 214 214 214 215 216 216 217 216 216 216 216 216 218 220 222 223 223 224 226 227 228 229 229 230 231
201 202 203 205 207 208 209 211 213 214 214 214 213 213 214 214 215 215 214 215 215 216 216 216 217 217 216 215 215 217 221 223 224 224 224 224 225 227 229 229 230 232
201 202 203 204 205 207 209 210 213 214 214 214 214 214 215 215 215 215 215 215 215 215 216 216 217 217 217 216 216 219 223 224 225 225 223 222 223 224 226 229 231 232
202 202 202 204 205 207 208 210 212 213 213 214 214 215 215 215 215 215 216 216 215 215 216 217 218 218 217 216 219 223 226 225 225 224 221 220 222 224 225 228 229 231
203 202 202 204 205 207 208 209 211 212 212 213 214 214 214 214 214 215 215 216 215 216 217 218 218 218 217 217 222 227 228 225 224 223 220 218 221 225 227 227 228 229
203 202 202 204 205 206 208 209 210 210 211 212 213 214 214 213 214 215 215 215 215 216 218 218 218 218 218 219 224 229 228 225 224 223 220 218 221 225 226 226 226 226
202 202 203 204 205 205 206 207 209 210 211 211 212 213 213 212 213 214 214 215 216 216 218 218 218 218 218 220 225 229 228 225 224 223 220 220 223 226 226 226 225 224
201 202 203 203 203 203 205 206 208 209 210 211 211 211 212 213 213 213 214 215 216 216 217 217 218 218 218 220 224 228 228 225 223 222 220 220 223 226 227 227 226 226
201 201 201 201 201 201 203 205 207 208 209 209 209 210 212 213 213 213 214 215 215 215 215 215 217 217 217 220 224 227 227 223 220 219 218 218 222 227 228 228 228 228
201 200 199 198 197 198 201 203 205 206 208 207 206 208 209 211 212 212 213 214 213 214 214 213 215 217 218 220 223 224 223 220 216 215 215 217 222 227 229 229 229 229
200 199 197 195 195 197 199 201 203 204 205 204 204 205 207 209 210 209 210 212 212 213 213 212 214 217 219 220 220 221 220 217 213 211 211 215 221 226 228 227 228 229
199 198 197 195 195 197 198 199 201 202 202 201 202 204 205 206 205 204 206 208 211 213 213 213 215 217 218 217 217 218 218 215 210 207 208 212 218 222 223 224 226 226
197 197 196 195 196 197 197 197 198 197 196 196 197 199 200 200 200 200 202 205 208 211 213 213 214 216 216 215 215 218 218 213 207 205 206 210 214 217 218 219 221 222
Height
779 781 783 784 786 788 790 792 794 796 797 798 800 802 804 806 808 810 812 814 815 816 817 819 820 821 822 823 824 825 826 827 827 828 829 830 831 831 832 832 833 833
776 778 780 782 784 786 788 790 791 793 794 796 798 800 802 804 806 808 809 811 813 814 815 816 817 818 820 821 822 823 824 825 826 827 828 828 829 830 831 831 832 832
772 774 776 778 780 783 785 787 789 791 792 794 796 797 799 801 803 805 807 808 810 811 812 813 815 816 817 819 820 821 822 822 823 824 826 827 827 828 829 830 830 831
769 771 773 775 777 780 783 785 787 788 790 791 793 795 796 798 800 802 804 805 807 808 809 811 812 814 815 816 817 818 819 820 821 822 824 824 825 826 827 828 829 830
765 768 770 772 775 778 780 782 783 785 786 788 790 792 794 795 797 799 801 802 804 805 806 808 810 811 813 814 815 816 817 818 819 820 821 822 823 824 825 826 827 828
762 764 767 770 772 775 777 778 780 782 783 785 787 789 790 792 794 795 797 799 801 802 804 805 807 808 810 811 812 813 814 815 816 817 818 819 820 821 822 824 825 826
758 761 764 767 770 772 774 775 777 779 780 782 784 785 787 789 790 792 794 796 798 799 800 802 803 805 807 808 809 810 811 812 814 815 815 816 817 819 820 821 822 823
754 757 761 764 767 769 770 772 774 775 777 779 780 781 783 785 787 788 791 793 794 796 797 798 800 801 803 805 805 807 808 809 811 812 813 813 814 816 817 819 820 821
750 753 757 760 763 765 766 768 770 772 773 775 776 778 780 782 783 785 788 790 791 793 794 795 797 798 800 801 802 804 805 806 808 809 810 811 812 813 815 817 819 820
745 748 752 755 758 760 762 764 767 768 770 771 772 775 776 778 780 782 784 786 788 789 791 792 793 795 797 798 799 801 802 804 805 807 808 809 810 812 814 815 817 818
740 743 746 749 752 755 757 760 763 765 765 767 769 771 773 775 777 779 781 782 784 785 787 789 790 792 794 795 797 798 800 802 803 805 806 808 809 811 812 814 816 817
734 737 740 743 746 749 753 756 759 761 761 763 764 767 769 771 773 775 776 778 780 782 784 785 787 790 791 792 794 796 798 800 801 803 805 806 807 809 810 812 813 815
728 731 734 737 741 744 748 752 754 756 757 758 761 763 766 767 769 771 772 774 776 779 781 783 785 787 789 790 792 794 796 797 799 801 802 803 805 806 808 809 811 813
722 725 728 732 736 740 744 747 750 752 753 755 758 760 762 763 765 767 769 771 774 776 778 780 782 784 786 788 790 792 794 795 796 798 799 801 802 804 806 807 808 810
718 721 724 727 732 735 739 742 745 747 750 752 754 756 758 760 762 764 766 769 771 773 775 777 779 780 782 785 787 790 791 792 794 795 796 798 799 801 803 805 806 807
714 717 720 723 726 729 733 737 740 743 746 748 750 752 754 757 759 762 763 765 767 770 772 774 775 776 778 781 784 787 788 789 790 791 793 795 797 798 800 801 803 804
709 712 715 718 721 724 728 731 735 738 741 744 746 749 751 754 756 758 759 762 764 766 768 769 771 773 775 778 781 783 784 785 786 788 790 792 794 795 797 798 800 801
705 707 710 713 716 720 723 727 731 735 737 740 743 745 748 750 752 754 756 758 760 762 763 765 767 769 771 775 777 778 780 781 783 785 787 789 790 792 793 795 796 798
700 703 705 708 711 715 719 723 727 730 733 736 738 741 744 746 748 750 752 754 756 757 759 760 763 765 767 770 773 774 776 778 780 782 783 785 786 788 789 791 792 794
695 698 700 703 707 711 716 719 722 725 728 732 735 738 740 742 744 746 748 750 751 752 755 757 759 761 763 767 770 771 773 775 777 778 780 782 783 785 786 788 790 792
689 692 695 699 703 708 712 715 718 721 725 728 731 734 736 737 740 742 743 745 747 749 751 753 755 757 760 764 766 768 770 772 774 776 777 779 781 782 784 786 788 790
683 686 690 694 699 703 707 710 714 717 721 724 727 730 732 734 736 738 739 741 744 746 748 750 752 754 757 761 763 765 767 770 772 774 775 777 779 781 783 784 786 789
678 681 685 690 695 699 702 705 709 713 717 720 723 726 728 730 731 733 735 738 740 743 745 747 748 750 753 756 758 761 764 766 769 771 773 775 777 779 781 782 784 786
673 677 681 686 690 693 697 701 704 709 712 715 718 721 723 725 727 730 732 734 737 739 740 743 744 745 748 751 754 757 760 762 766 768 771 773 775 777 779 780 782 784
670 674 678 681 685 688 692 696 700 704 707 711 714 716 719 721 724 727 729 731 733 735 737 739 741 742 746 749 752 755 756 758 762 765 768 770 772 774 776 778 780 782
666 670 673 676 680 684 688 692 696 700 704 707 710 713 716 719 721 724 726 728 731 733 735 737 740 742 746 748 750 753 754 756 759 762 765 768 770 772 774 775 777 780